Date,TemperatureHighF,TemperatureAvgF,TemperatureLowF,DewpointHighF,DewpointAvgF,DewpointLowF,HumidityHigh,HumidityAvg,HumidityLow,PressureMaxIn,PressureMinIn,WindSpeedMaxMPH,WindSpeedAvgMPH,GustSpeedMaxMPH,PrecipitationSumIn
2013-10-1,89.0,69.8,50.3,35.8,26.2,15.6,41,22,8,30.06,29.97,7,2,7,0.00
2013-10-2,85.2,69.1,53.9,38.5,30.0,23.4,34,24,15,30.08,29.96,10,3,11,0.00
2013-10-3,82.5,68.0,53.9,38.9,31.1,24.1,41,27,12,30.02,29.88,11,4,13,0.00
2013-10-4,81.4,67.3,57.3,41.6,34.5,22.2,46,31,18,30.06,29.92,13,4,15,0.00
2013-10-5,79.1,61.6,49.7,26.9,17.8,13.8,27,19,11,30.21,30.06,7,2,9,0.00
2013-10-6,78.5,58.7,44.0,29.6,21.4,16.6,36,25,12,30.27,30.17,8,2,8,0.00
2013-10-7,78.3,60.6,44.0,32.0,23.7,19.9,39,26,13,30.25,30.08,8,2,8,0.00
2013-10-8,82.5,63.9,46.7,36.2,28.7,22.6,40,28,15,30.08,29.92,9,3,11,0.00
2013-10-9,80.5,66.9,52.1,43.4,34.4,28.1,41,31,19,30.01,29.89,12,4,15,0.00
2013-10-10,76.5,64.3,50.4,42.5,34.4,26.8,50,34,19,29.98,29.86,22,6,22,0.13
2013-10-11,74.0,58.9,46.3,38.9,30.5,26.0,48,35,23,30.04,29.96,13,3,13,0.00
2013-10-12,78.0,61.7,45.9,36.7,29.8,23.3,44,31,19,30.12,30.01,8,2,11,0.00
2013-10-13,79.8,65.4,51.7,47.6,39.2,30.7,52,39,30,30.11,30.00,10,4,13,0.00
2013-10-14,73.7,65.0,59.1,46.9,42.9,40.2,55,45,33,30.10,30.00,16,4,16,0.00
2013-10-15,75.3,60.9,53.0,48.2,41.5,26.0,67,50,28,30.06,29.95,17,6,21,0.00
2013-10-16,73.3,59.0,46.8,47.2,30.6,12.9,73,41,12,30.11,30.00,14,3,16,0.00
2013-10-17,74.7,56.7,40.7,32.1,19.7,14.5,41,25,12,30.12,29.96,7,2,8,0.00
2013-10-18,77.8,57.8,40.9,26.5,17.5,12.3,32,22,11,30.10,29.96,6,2,7,0.00
2013-10-19,71.1,54.4,37.1,30.5,22.8,16.2,45,30,19,30.20,30.04,8,2,8,0.00
2013-10-20,75.8,57.7,39.3,33.6,18.2,8.7,46,25,8,30.05,29.90,11,2,11,0.00
2013-10-21,74.2,55.4,40.2,31.3,22.2,11.1,43,28,19,30.16,29.96,10,2,10,0.00
2013-10-22,74.0,55.4,40.0,37.3,27.8,22.3,54,37,21,30.23,30.11,6,2,8,0.00
2013-10-23,76.4,58.2,42.0,35.3,27.2,21.0,46,32,18,30.17,30.06,7,2,8,0.00
2013-10-24,50.8,48.9,46.1,27.2,26.0,24.1,43,41,39,30.11,30.08,2,2,4,0.00